Regional Weather Roundup
Issued by NWS

Home | Current Version | Previous Version | Text Only | Print | Product List | Glossary Off
Versions: 1 2 3 4 5 6 7 8 9 10 11 12 13 14 15 16 17 18 19 20 21 22 23 24 25 26 27 28 29 30 31 32 33 34 35 36 37 38 39 40 41 42 43 44 45 46 47 48 49 50

000
ASUS43 KOAX 190210
RWRNE

WEATHER ROUNDUP FOR NEBRASKA
NATIONAL WEATHER SERVICE OMAHA NE
900 PM CDT THU SEP 18 2014

NOTES: SATELLITE DATA IS BEING USED TO AUGMENT CLOUD COVER ABOVE
       12000 FEET.
       "FAIR" INDICATES FEW OR NO CLOUDS BELOW 12,000 FEET WITH NO
       SIGNIFICANT WEATHER AND/OR OBSTRUCTIONS TO VISIBILITY.

  * THESE STATIONS DO NOT REPORT WEATHER SUCH AS RAIN...SNOW OR FOG.

NEZ001>004-019>022-054>056-190300-
NEBRASKA PANHANDLE

CITY           SKY/WX    TMP DP  RH WIND       PRES   REMARKS
SCOTTSBLUFF    CLEAR     74  57  55 MISG      29.84R
ALLIANCE       CLEAR     69  61  75 S16       29.86R
CHADRON        CLEAR     79  62  56 S20G28    29.75S
KIMBALL        CLEAR     71  52  51 SE9       29.92R
SIDNEY         CLEAR     71  61  70 SE13      29.92R
$$

NEZ057>060-069>072-079>082-190300-
SOUTHWEST NEBRASKA

CITY           SKY/WX    TMP DP  RH WIND       PRES   REMARKS
NORTH PLATTE   MOCLDY    63  59  87 SE3       29.90S
IMPERIAL       CLEAR     63  60  90 SE9       29.90S
LEXINGTON      CLEAR     63  62  96 E5        29.90S FOG
MCCOOK         CLEAR     63  61  93 E7        29.90R
OGALLALA       CLEAR     64  62  91 E6        29.89S
$$

NEZ005>010-023>029-035>040-094-190300-
NORTH CENTRAL NEBRASKA

CITY           SKY/WX    TMP DP  RH WIND       PRES   REMARKS
VALENTINE      CLEAR     69  61  75 S16G22    29.83R
AINSWORTH      CLEAR     64  60  88 S8        29.85S
BROKEN BOW     CLOUDY    68  65  90 SE9       29.90S
O`NEILL        CLOUDY    71  65  80 S10       29.88R
ORD            CLOUDY    69  64  84 SE9       29.89R
THEDFORD       CLOUDY    67  62  82 S12G18    29.89S
$$

NEZ041-046>049-061>064-073>077-083>087-190300-
SOUTH CENTRAL NEBRASKA

CITY           SKY/WX    TMP DP  RH WIND       PRES   REMARKS
GRAND ISLAND   CLEAR     68  64  87 SE8       29.91R
AURORA         CLEAR     67  65  93 SE6       29.91S
HASTINGS       CLEAR     70  61  73 SE10      29.90S
HEBRON         CLEAR     68  62  81 SE13G18   29.93R
HOLDREGE       CLEAR     63  61  94 CALM      29.90S FOG
KEARNEY *      CLEAR     64  61  88 E7        29.91R
YORK           CLEAR     68  66  94 SE14      29.92S
$$

NEZ011>018-030>034-042>045-190300-
NORTHEAST NEBRASKA

CITY           SKY/WX    TMP DP  RH WIND       PRES   REMARKS
NORFOLK        MOCLDY    68  59  73 SE13      29.92R
ALBION         CLEAR     65  62  88 S3        29.91S
BLAIR          CLEAR     64  56  75 SE8       29.96S
COLUMBUS *     CLEAR     66  57  72 SE8       29.94R
FREMONT        CLEAR     67  56  69 SE9       29.96S
TEKAMAH        CLEAR     64  57  78 SE9       29.96R
WAYNE          CLEAR     65  58  80 SE14      29.93R
$$

NEZ050>053-065>068-078-088>093-190300-
SOUTHEAST NEBRASKA

CITY           SKY/WX    TMP DP  RH WIND       PRES   REMARKS
LINCOLN        CLEAR     66  59  78 SE14G24   29.96R
OMAHA EPPLEY   CLEAR     66  56  70 SE12      29.97S
BEATRICE       CLOUDY    64  61  88 SE13      29.96R
FALLS CITY     CLEAR     61  59  93 SE5       29.99S
NEBRASKA CITY  CLEAR     62  56  80 S7        29.99S
PLATTSMOUTH    CLEAR     64  57  77 SE8       29.98S
$$

NEZ044-045-051>053-067-190300-
OMAHA AREA

CITY           SKY/WX    TMP DP  RH WIND       PRES   REMARKS
OMAHA EPPLEY   CLEAR     66  56  70 SE12      29.97S
BLAIR          CLEAR     64  56  75 SE8       29.96S
FREMONT        CLEAR     67  56  69 SE9       29.96S
MILLARD        CLEAR     65  58  78 SE7       29.96S
OFFUTT AFB     CLEAR     63  62  97 E9        29.97R
PLATTSMOUTH    CLEAR     64  57  77 SE8       29.98S
WAHOO          FAIR      64  57  80 SE7       29.96R
$$


USA.gov is the U.S. government's official web portal to all federal, state and local government web resources and services.